Regional Weather Roundup
Issued by NWS

Home | Current Version | Previous Version | Graphics & Text | Print | Product List | Glossary On
Versions: 1 2 3 4 5 6 7 8 9 10 11 12 13 14 15 16 17 18 19 20 21 22 23 24 25 26 27 28 29 30 31 32 33 34 35 36 37 38 39 40 41 42 43 44 45 46 47 48 49 50
956
ASUS43 KIND 250759
RWRIN

WEATHER ROUNDUP FOR INDIANA
NATIONAL WEATHER SERVICE INDIANAPOLIS IN
400 AM EDT TUE JUL 25 2017

NOTE: "FAIR" INDICATES FEW OR NO CLOUDS BELOW 12,000 FEET WITH NO
SIGNIFICANT WEATHER AND/OR OBSTRUCTIONS TO VISIBILITY.

* - STATION DOES NOT REPORT WEATHER SUCH AS PRECIPITATION OR FOG.

+ - STATION NOT QUALITY CONTROLLED BY THE NATIONAL WEATHER SERVICE.
    USE DATA WITH CAUTION...ESPECIALLY DEWPOINT AND RELATIVE
    HUMIDITY OBSERVATIONS.

INZ001>003-010>013-019-020-250900-
NORTHWEST INDIANA

CITY           SKY/WX    TMP DP  RH WIND       PRES   REMARKS
MONTICELLO +   CLEAR     60  58  95 CALM      30.14R
VALPARAISO     CLEAR     61  59  94 E3        30.14S FOG

$$

LMZ046-743>745-250900-
SOUTHERN LAKE MICHIGAN

STATION/POSITION TIME  TEMP    WIND        PRES    WAVE
                       AIR SEA DIR/SP/G            HT
                 (UTC) (F)     (DEG/KT/KT) (MB)    (FT)
BURNS HARBOR     0740   67     110/  9/ 11 1020.7S
MICHIGAN CITY    0730   64     100/  7/  9   N/A
5NW MICH CITY    0750   67 74  120/  8/ 10   N/A     3

$$

INZ004-005-014>016-021>024-250900-
NORTH CENTRAL INDIANA

CITY           SKY/WX    TMP DP  RH WIND       PRES   REMARKS
GOSHEN         CLEAR     56  53  90 CALM      30.16R FOG
SOUTH BEND     CLEAR     59  58  96 CALM      30.15F

$$

INZ006>009-017-018-025>027-250900-
NORTHEAST INDIANA

CITY           SKY/WX    TMP DP  RH WIND       PRES   REMARKS
FORT WAYNE     CLEAR     58  56  93 CALM      30.16R
KENDALLVILLE + CLEAR     56  56 100 E3        30.16S

$$

INZ028-029-035-036-043>045-051>053-250900-
WEST CENTRAL INDIANA

CITY           SKY/WX    TMP DP  RH WIND       PRES   REMARKS
LAFAYETTE      CLEAR     62  59  90 E7        30.13R
TERRE HAUTE    CLEAR     65  61  87 E6        30.11R

$$

INZ030>032-037>040-046>048-054>057-064-065-250900-
CENTRAL INDIANA

CITY           SKY/WX    TMP DP  RH WIND       PRES   REMARKS
GREENWOOD *+   CLEAR    N/A N/A N/A E3        30.13S
INDIANAPOLIS   CLEAR     65  57  75 E7        30.12R
-EAGLE CREEK   CLEAR     64  57  78 NE5       30.13R
KOKOMO +       CLEAR     59  57  93 E6        30.15R
MT COMFORT *+  CLEAR     57  57 100 E6        30.13S
SHELBYVILLE    PTCLDY    61  57  87 NE3       30.12S

$$

INZ033-034-041-042-049-050-058-059-250900-
EAST CENTRAL INDIANA

CITY           SKY/WX    TMP DP  RH WIND       PRES   REMARKS
MUNCIE         CLEAR     59  56  89 CALM      30.14S
RICHMOND +     CLEAR     55  54  94 E3        30.14S

$$

INZ060-061-067>069-081>083-085>088-250900-
SOUTHWEST INDIANA

CITY           SKY/WX    TMP DP  RH WIND       PRES   REMARKS
EVANSVILLE     PTCLDY    72  68  87 NE7       30.06R
HUNTINGBURG *+ CLEAR     69  67  93 NE5       30.07R

$$

INZ062-063-066-070>080-084-089>092-250900-
SOUTH CENTRAL AND SOUTHEAST INDIANA

CITY           SKY/WX    TMP DP  RH WIND       PRES   REMARKS
BLOOMINGTON    CLEAR     67  59  75 E7        30.11R
MADISON *+     CLEAR     64  59  82 NE6       30.12S
SEYMOUR +      PTCLDY   N/A N/A N/A NE3       30.10R

$$





USA.gov is the U.S. government's official web portal to all federal, state and local government web resources and services.